703  
NZUS93 KARX 122310  
HRRWXR  
 
CURRENT HOURLY OBSERVATIONS ACROSS  
MUCH OF THE UPPER MISSISSIPPI VALLEY  
NATIONAL WEATHER SERVICE LA CROSSE WI  
600 PM CDT SUN JUL 12 2020  
 
   
..SOUTHEAST MINNESOTA
 
 
 
CITY SKY/WX TMP DP RH WIND PRES REMARKS  
ROCHESTER SUNNY 78 60 53 NW7 29.95F  
ROCHESTER/MAYO FAIR 81 53 37 NW7 29.95S  
WINONA SUNNY 79 61 53 CALM 29.92F  
AUSTIN SUNNY 81 61 50 E3 29.96S  
ALBERT LEA SUNNY 79 63 57 N3 29.96S  
DODGE CENTER SUNNY 79 57 47 CALM 29.96S  
PRESTON SUNNY 78 59 52 N3 29.96S  
OWATONNA MOSUNNY 79 61 53 NW5 29.95S  
FARIBAULT SUNNY 79 61 53 NW3 29.95S  

 
   
..ELSEWHERE IN MINNESOTA
 
 
 
CITY SKY/WX TMP DP RH WIND PRES REMARKS  
MINNEAPOLIS MOSUNNY 80 58 46 SE5 29.92S  
INTNL FALLS SUNNY 79 53 40 VRB3 29.92F  
DULUTH MOSUNNY 74 55 51 SE7 29.95S  
RED WING SUNNY 82 54 36 NE3 29.92R  
REDWOOD FALLS PTSUNNY 79 62 56 CALM 29.94S  
MANKATO SUNNY 79 61 53 N6 29.96S  
WORTHINGTON MOSUNNY 81 61 50 W7 29.97F  
FAIRMONT SUNNY 80 63 55 N6 29.97S  

 
   
..SOUTHWEST WISCONSIN
 
 
 
CITY SKY/WX TMP DP RH WIND PRES REMARKS  
LA CROSSE MOSUNNY 84 58 40 N6 29.91S  
PRAIRIE DU CHI MOSUNNY 81 56 41 N5 29.92S  
BOSCOBEL SUNNY 83 61 47 VRB3 29.92S  
LONE ROCK PTSUNNY 80 63 55 N6 29.92S  
PLATTEVILLE MOSUNNY 78 62 57 N6 29.94S  
FORT MC COY SUNNY 79 58 48 NW5 29.94R  
CAMP DOUGLAS SUNNY 79 63 57 N7 29.93S  
MAUSTON-NEW LI MOCLDY 78 60 53 CALM 29.93S  
VIROQUA FAIR 78 64 61 N6 29.95S  
WIS DELLS PTSUNNY 77 55 47 NE5 29.93S  

 
   
..ELSEWHERE IN WISCONSIN
 
 
 
CITY SKY/WX TMP DP RH WIND PRES REMARKS  
MILWAUKEE MOSUNNY 72 60 66 NE12 29.93R  
MADISON MOSUNNY 79 59 50 NE9 29.92R  
GREEN BAY CLOUDY 78 59 51 NW6 29.92S  
EAU CLAIRE SUNNY 81 57 43 NE6 29.93S  
BLACK RVR FLS FAIR 80 58 46 NE5 29.93S  
MEDFORD MOSUNNY 74 55 50 N5 29.95F  
WAUSAU MOSUNNY 77 53 43 N5 29.93F  
WIS RAPIDS SUNNY 79 55 43 VRB7G16 29.94F  
MARSHFIELD SUNNY 77 56 48 N6 29.94F  
RICE LAKE MOSUNNY 77 59 53 N5 29.96S  

 
   
..NORTHEAST IOWA
 
 
 
CITY SKY/WX TMP DP RH WIND PRES REMARKS  
WATERLOO MOSUNNY 84 61 45 N9 29.92S  
DUBUQUE MOSUNNY 78 62 57 N7 29.94S  
DECORAH SUNNY 77 63 61 N3 29.93S  
MASON CITY MOSUNNY 80 59 48 NE5 29.97S  
CHARLES CITY NOT AVBL  
OELWEIN SUNNY 79 63 57 N7 29.95R  

 
   
..ELSEWHERE IN IOWA
 
 
 
CITY SKY/WX TMP DP RH WIND PRES REMARKS  
DES MOINES MOSUNNY 84 60 44 NW7 29.93F  
IOWA CITY PTSUNNY 81 62 52 E5 29.94R  
FORT DODGE SUNNY 82 63 52 VRB5 29.97S  
MARSHALLTOWN MOSUNNY 81 60 48 NW6 29.94S  
CEDAR RAPIDS PTSUNNY 82 63 52 NW8 29.93S  

 
   
..NORTHERN ILLINOIS
 
 
 
CITY SKY/WX TMP DP RH WIND PRES REMARKS  
CHICAGO-OHARE PTSUNNY 76 63 64 NE10 29.91R  
CHICAGO-MIDWAY PTSUNNY 73 60 63 NE14 29.91R  
MOLINE MOSUNNY 81 59 47 N5 29.91R  
ROCKFORD MOSUNNY 82 58 43 N10 29.92S  
PEORIA SUNNY 83 60 45 N6 29.90R  

 
 
NOTE: "FAIR" INDICATES FEW OR NO CLOUDS BELOW 12,000 FEET WITH NO  
SIGNIFICANT WEATHER AND/OR OBSTRUCTIONS TO VISIBILITY. WIND  
SPEEDS ARE IN MILES-PER-HOUR.  
 
 
CLICK HERE TO GO TO PREVIOUS BULLETINS.

The Nexlab WI Page
The Nexlab IA Page
The Nexlab MN Page Main Text Page